Probability
5 4 3 3 3 3 3 3 2 1 4 9 11 11 10 8 5 4 4 5 7 8 8 9 12 12 8 6 6 5 4 3 3 3 3 3 3 3 3 3 3 3 3 3 3 3 3 3 3
4 3 3 3 3 2 2 3 3 3 6 11 14 13 11 8 7 7 6 9 12 12 9 10 12 12 8 6 6 5 4 3 3 3 3 3 3 3 3 3 3 3 3 3 3 3 3 3 3
3 3 3 3 3 2 2 3 3 5 8 14 17 15 9 7 8 10 12 16 19 17 12 11 13 12 8 6 6 6 4 3 3 3 3 3 3 3 3 3 3 3 3 3 3 3 3 3 3
3 3 3 3 3 3 4 5 4 6 11 18 22 19 11 8 12 18 22 24 23 21 17 16 15 13 8 7 6 6 5 4 3 3 3 3 3 3 3 3 3 3 3 3 3 3 3 3 3
3 3 3 3 3 3 5 5 6 10 18 25 29 26 17 16 26 31 29 28 27 26 24 21 18 14 10 8 7 6 6 4 3 3 3 3 3 3 3 3 3 3 3 3 3 3 3 3 3
3 3 2 1 1 2 4 4 7 15 25 31 32 30 24 27 37 38 33 31 32 32 29 25 21 17 13 10 8 6 5 4 3 3 3 3 3 3 3 3 3 3 3 3 3 3 3 3 3
3 2 1 0 0 1 3 3 7 17 28 33 34 33 32 35 38 35 32 34 36 35 31 27 24 19 15 11 8 6 4 3 3 3 3 3 3 3 3 3 3 3 3 3 3 3 3 3 3
2 1 1 0 0 1 2 3 8 20 31 36 37 38 39 40 39 36 37 39 40 37 33 32 28 22 17 11 7 5 3 3 3 3 3 3 3 3 3 3 3 3 3 3 3 3 3 3 3
1 1 1 1 0 1 2 3 11 25 36 40 40 40 43 46 46 45 48 49 46 40 36 34 32 26 19 11 6 4 3 3 3 3 3 3 3 3 3 3 3 3 3 3 3 3 3 4 4
2 2 2 1 0 0 1 4 14 28 38 41 41 42 49 54 53 53 55 54 48 42 37 33 32 28 21 13 7 4 3 3 3 3 3 3 3 3 3 3 3 3 3 3 3 3 3 3 3
1 1 1 0 0 0 1 5 14 26 32 36 41 47 55 58 57 56 55 50 44 37 33 30 28 26 21 15 10 6 4 3 3 3 3 3 3 3 3 3 3 3 3 2 2 1 1 1 1
0 0 0 0 0 0 2 7 16 24 29 34 41 50 58 59 58 57 55 49 41 33 29 27 25 21 18 15 10 6 5 4 3 3 3 3 3 3 3 3 3 2 1 1 1 0 0 0 0
0 0 0 0 0 0 2 9 18 27 34 40 46 51 56 56 54 54 54 51 45 37 31 27 22 18 16 13 8 6 5 4 3 3 3 3 3 3 3 3 2 1 0 0 0 0 0 0 0
0 0 0 0 0 0 2 8 20 33 43 50 52 51 52 50 48 49 51 51 49 44 37 30 23 18 16 12 7 6 6 5 3 3 3 3 3 3 3 3 1 0 0 0 0 0 0 0 0
0 0 0 0 0 0 1 7 19 35 48 55 54 51 49 47 45 44 44 47 48 46 41 35 28 23 20 16 11 8 7 6 4 3 3 3 3 3 3 2 1 0 0 0 0 0 0 0 0
0 0 0 0 0 0 1 5 17 32 45 51 50 49 47 44 41 38 36 40 44 44 42 38 33 30 27 23 17 12 9 6 4 4 3 3 3 3 3 2 1 0 0 0 0 0 0 0 0
0 0 0 0 0 0 1 6 15 26 36 42 43 43 42 38 35 34 34 37 40 41 41 38 36 34 31 26 21 15 10 6 4 4 4 3 3 3 3 3 2 1 0 0 0 0 0 0 0
0 0 0 0 0 1 3 8 14 21 27 32 33 34 33 31 31 32 34 35 35 36 37 37 37 36 32 28 23 18 12 6 4 4 4 4 3 3 3 2 2 1 0 0 0 0 0 0 0
0 0 0 0 1 2 4 9 15 20 22 25 26 26 28 29 29 31 33 33 32 32 33 34 35 35 32 28 24 19 12 6 4 3 4 5 4 2 1 1 1 0 0 0 0 0 0 0 0
0 0 0 0 1 2 4 8 14 18 20 21 23 24 27 30 30 30 30 28 27 27 27 28 28 29 27 24 21 18 13 9 6 4 4 5 4 2 0 0 0 0 0 0 0 0 0 0 0
0 0 0 0 0 1 2 6 11 15 17 19 19 21 24 28 29 28 26 23 20 19 19 19 19 20 19 18 17 16 14 11 8 5 3 4 3 1 0 0 0 0 0 0 0 0 0 0 0
0 0 0 0 0 0 1 3 6 11 14 15 16 17 19 23 24 23 21 17 14 13 13 12 13 13 13 12 12 13 12 9 7 4 2 2 2 1 0 0 0 0 0 0 0 0 0 0 0
0 0 0 0 0 0 0 1 3 8 11 12 13 15 17 20 21 19 17 14 12 11 10 9 10 9 8 6 7 8 7 6 5 4 2 1 1 1 0 0 0 0 0 0 0 0 0 0 0
0 0 0 0 0 0 0 1 2 5 7 9 12 14 17 18 18 17 15 13 12 11 9 8 9 7 4 3 3 4 3 3 3 2 2 1 0 0 0 0 0 0 0 0 0 0 0 0 0
0 0 0 0 1 0 1 1 1 2 4 7 11 13 15 15 14 14 13 12 12 12 10 8 8 6 2 2 3 2 2 1 2 1 1 1 0 0 0 0 0 0 0 0 0 0 0 0 0
0 0 0 0 0 0 1 1 1 1 3 6 9 11 13 11 9 10 10 11 12 12 11 9 7 5 2 2 4 4 2 2 2 2 1 0 0 0 0 0 0 0 0 0 0 0 0 0 0
0 0 0 0 0 0 0 0 1 2 4 5 6 8 8 7 6 7 8 9 10 10 10 9 7 4 3 3 4 5 4 3 3 2 1 0 0 0 0 0 0 0 0 0 0 0 0 0 0
1 1 0 0 0 0 0 0 1 2 4 4 4 4 4 4 5 7 7 7 7 7 8 8 6 4 3 2 3 4 4 3 3 2 1 0 0 0 0 0 0 0 0 0 0 0 0 0 0
2 1 0 0 0 0 0 0 0 1 2 3 3 2 2 3 5 6 6 5 5 5 6 8 6 3 1 1 1 1 2 2 1 1 0 0 0 0 0 0 0 0 0 0 0 0 0 0 0
3 1 0 0 0 0 0 0 1 2 2 1 1 1 1 2 4 6 6 4 4 4 6 9 7 3 0 0 0 0 0 1 0 0 0 0 0 0 0 0 0 0 0 0 0 0 0 0 0
Wind_Speed
6 5 3 1 2 3 2 4 4 3 1 2 7 8 9 5 4 4 5 16 19 17 15 18 20 20 20 19 19 18 18 17 17 16 16 16 16 15 15 14 14 14 14 13 13 13 13 13 13
3 4 2 2 3 1 4 4 5 6 6 7 8 7 7 6 6 8 8 16 19 17 13 15 21 21 20 19 18 18 17 17 16 16 16 16 15 15 15 14 14 14 13 13 13 12 12 12 12
3 3 2 2 1 4 5 4 6 5 6 6 6 4 5 5 7 6 10 17 16 14 12 16 22 21 21 19 18 18 17 17 16 16 15 15 15 15 14 14 14 14 13 12 12 11 11 11 10
1 2 2 1 6 8 8 8 6 5 4 5 8 6 3 3 6 11 17 18 16 12 11 16 22 21 20 20 19 18 17 17 16 16 15 15 15 14 14 14 13 13 13 12 11 11 10 9 9
2 3 1 3 7 7 7 7 6 7 5 6 10 8 3 3 14 19 17 18 17 13 10 14 21 21 20 20 19 18 17 17 16 15 15 15 14 14 14 14 13 12 12 11 10 9 8 8 8
2 3 1 4 6 7 5 3 7 8 8 8 10 8 3 8 16 17 16 15 15 15 12 13 20 21 20 20 19 18 17 17 16 15 15 14 14 13 13 13 13 12 11 10 9 8 7 7 6
3 1 3 5 6 7 4 2 8 8 8 6 9 9 5 9 14 16 15 14 13 13 12 10 12 15 19 19 19 18 17 17 16 15 15 14 14 13 13 12 12 11 10 9 8 6 6 5 4
4 2 3 4 4 5 3 1 5 9 8 8 7 10 9 12 14 15 14 14 13 11 10 9 9 9 10 12 18 18 17 17 16 15 15 14 13 13 12 11 11 11 9 8 7 5 4 3 3
3 1 5 5 4 4 2 2 3 5 8 5 3 6 11 18 17 15 14 13 13 13 10 9 9 8 8 8 14 15 16 16 14 12 15 12 5 6 7 9 10 10 9 7 5 4 2 1 2
5 4 8 6 4 4 3 2 5 6 6 4 5 7 14 17 17 17 17 17 15 15 12 9 10 10 9 9 7 5 7 7 6 5 6 4 4 4 6 8 10 9 8 6 4 2 0 1 1
5 8 8 7 7 3 1 2 3 8 4 7 12 13 15 15 15 16 16 17 16 16 15 12 10 10 9 6 6 3 3 4 5 5 5 4 3 3 3 3 4 4 4 2 2 1 1 1 1
5 10 9 7 5 1 0 1 3 2 6 10 14 15 15 15 14 15 16 16 15 15 15 13 11 10 8 7 6 5 4 4 4 5 6 5 3 3 3 2 3 2 2 2 1 1 1 1 1
6 8 7 5 3 2 1 1 3 3 9 12 14 14 12 13 11 10 12 13 15 15 14 13 11 9 9 8 6 6 5 5 5 5 5 6 5 4 3 2 2 2 2 2 2 1 1 1 1
4 5 6 5 4 1 2 1 4 5 10 12 13 12 11 12 11 9 11 11 13 15 15 13 11 10 9 7 6 6 5 5 4 4 5 6 5 5 4 3 2 2 2 2 2 1 1 1 1
3 5 8 5 3 2 3 1 3 8 11 12 12 12 11 9 9 10 11 12 14 14 13 13 12 10 9 8 7 6 5 5 5 4 5 6 6 5 4 3 3 2 2 2 2 2 1 1 1
5 3 4 7 3 3 3 5 4 8 11 11 11 10 9 8 8 8 9 9 11 13 13 12 12 11 9 7 6 5 5 5 4 4 5 6 6 6 5 4 3 3 2 2 2 2 1 1 1
3 3 6 8 5 2 3 4 4 7 10 10 10 9 8 7 6 6 8 10 11 12 13 12 11 11 9 8 6 5 5 5 4 4 4 5 6 6 5 4 3 3 3 2 2 2 1 1 0
6 5 6 7 5 3 2 3 4 6 8 9 8 7 7 7 6 6 6 9 10 11 11 11 11 10 9 7 5 4 4 3 3 4 5 6 5 6 5 3 3 4 3 2 2 2 1 1 0
9 9 10 9 4 2 2 3 5 6 7 7 7 7 7 6 5 5 7 9 10 10 10 10 11 10 8 6 6 5 4 4 3 3 5 6 5 5 5 4 4 4 3 3 3 2 2 1 1
12 10 8 5 1 2 2 1 2 4 6 8 9 8 8 6 6 6 7 8 10 11 11 10 10 10 8 6 5 5 5 3 3 3 4 5 5 5 5 5 4 4 3 3 2 2 2 1 2
11 7 5 4 1 5 4 3 1 2 2 4 7 7 8 11 11 8 8 7 10 11 11 11 10 9 8 7 5 5 4 3 2 3 2 4 5 5 5 6 5 4 4 3 3 3 3 1 1
8 6 3 2 3 2 2 1 4 3 2 3 5 6 8 9 10 9 9 8 9 10 10 9 10 10 8 8 8 9 7 5 4 4 3 3 5 5 5 6 5 5 4 4 3 3 2 3 1
7 3 2 2 4 3 3 2 6 2 3 5 5 6 8 10 11 12 11 10 9 10 10 9 9 8 8 8 9 8 6 4 4 4 5 4 3 4 5 5 5 5 4 4 4 3 3 2 2
4 2 5 6 5 3 2 1 6 4 6 6 6 7 9 11 11 10 9 8 7 8 9 9 9 8 8 8 8 8 8 7 7 6 5 4 2 3 4 5 5 5 4 4 4 4 4 3 3
2 4 4 5 5 3 3 2 8 6 5 7 8 9 10 11 12 11 11 10 9 10 10 10 10 9 8 9 8 8 9 9 9 7 6 5 3 3 4 5 5 4 4 4 4 4 4 4 3
4 7 7 4 4 3 2 4 8 6 5 6 7 9 10 11 12 12 12 12 12 12 11 11 10 9 8 8 8 7 8 7 6 7 6 6 4 4 5 5 5 5 5 5 4 3 3 3 3
2 2 7 7 2 1 3 5 8 3 1 4 7 10 11 12 13 13 12 12 12 13 12 12 12 9 9 8 7 7 8 7 7 7 6 5 4 5 6 6 6 5 5 5 5 3 3 3 3
3 4 5 5 4 2 3 4 5 4 4 5 8 11 11 11 11 12 12 12 12 12 12 11 11 10 9 9 8 8 7 8 7 7 7 7 6 6 7 6 6 5 5 5 4 3 3 4 3
2 1 4 4 5 6 4 7 7 8 7 8 9 10 11 12 13 13 12 12 12 12 12 12 11 9 9 9 8 8 7 7 7 7 8 7 6 7 8 7 7 6 5 5 4 4 4 5 4
4 4 6 5 4 5 4 8 5 6 7 7 8 10 11 12 13 13 13 12 12 13 13 13 12 11 10 10 8 8 8 7 7 7 7 7 8 8 8 8 7 7 6 6 6 6 5 5 5
Wind_Direction
195 198 185 83 46 42 263 234 219 233 312 75 101 108 106 98 137 154 135 141 139 144 149 147 143 139 136 134 131 127 125 122 120 118 117 116 115 114 113 113 111 110 108 106 104 104 103 102 101
195 192 153 58 82 19 269 227 214 213 165 118 85 88 87 75 87 105 121 140 140 143 146 147 144 142 139 137 135 131 129 127 125 123 121 120 119 117 116 114 113 112 111 108 106 105 102 101 100
218 199 137 97 170 202 244 233 206 211 154 131 108 74 78 110 114 113 134 139 137 141 145 150 146 144 142 140 138 136 134 132 130 128 127 124 122 120 118 117 117 115 113 110 108 105 102 100 98
182 76 50 86 247 241 234 240 207 151 108 113 117 87 56 107 122 129 137 139 136 141 145 150 146 145 144 142 140 139 137 136 135 133 130 128 126 125 122 121 120 119 116 114 111 107 102 98 94
93 90 55 277 260 258 251 223 169 138 135 125 112 101 50 42 118 131 139 141 142 143 145 149 147 146 145 143 142 141 141 140 138 137 134 132 131 129 126 125 124 123 120 118 115 110 102 93 86
50 80 98 266 276 290 275 192 134 119 125 126 111 111 103 129 130 139 141 143 145 145 144 147 149 148 147 146 146 145 145 144 142 141 138 137 135 133 131 130 129 128 126 123 120 114 103 90 76
153 137 229 255 284 293 279 139 137 138 136 140 132 116 129 145 144 143 140 138 140 142 143 145 150 150 150 149 149 149 148 147 146 145 143 142 141 140 139 137 135 134 134 132 129 122 109 95 79
172 113 277 274 276 282 274 82 122 125 127 131 131 135 159 163 147 141 137 138 139 140 143 144 146 145 147 150 152 152 151 151 150 149 149 148 147 145 144 143 143 142 142 141 138 131 116 93 62
161 114 257 252 251 265 287 66 81 90 112 119 121 144 154 148 144 141 139 141 146 148 151 149 149 146 145 149 157 154 154 155 154 154 155 149 140 141 147 153 153 151 150 148 148 147 137 82 39
150 188 239 231 239 257 297 95 128 108 106 102 103 111 135 144 147 150 152 154 157 158 158 159 156 153 153 157 150 151 151 151 149 150 149 140 142 157 158 162 159 157 153 154 160 167 179 43 29
193 215 243 262 259 248 350 29 81 125 139 168 157 148 146 149 152 154 155 158 160 161 162 164 164 163 162 150 151 151 146 147 148 153 150 149 148 154 146 146 150 146 146 131 133 102 35 45 62
235 254 254 260 267 278 303 103 83 139 172 163 153 149 147 148 156 160 158 159 160 162 164 164 166 165 161 152 157 157 156 159 161 165 157 148 147 147 147 146 139 135 128 127 111 102 53 34 71
258 263 269 262 279 266 40 54 113 116 134 136 139 139 142 150 157 159 158 160 162 163 162 165 165 166 159 154 163 162 165 168 166 164 161 153 151 152 150 148 144 144 139 136 131 118 99 66 62
272 303 296 287 277 251 135 133 109 155 143 140 144 146 148 154 157 157 157 158 165 163 164 166 165 164 161 159 161 160 164 161 157 158 162 154 150 150 147 145 142 140 146 146 141 137 131 107 66
313 327 316 299 275 244 109 2 191 164 152 147 154 155 154 158 158 163 168 165 168 166 164 164 162 163 161 160 160 156 157 156 156 155 155 152 148 148 144 145 146 150 143 131 108 92 81 78 59
343 342 300 284 259 252 136 242 224 168 156 156 159 158 159 162 169 169 168 170 167 163 165 166 166 161 159 154 150 150 150 151 152 149 151 153 149 147 142 146 152 150 134 123 118 100 88 64 60
343 282 270 282 254 222 155 222 214 165 158 159 160 160 162 166 178 177 169 168 166 164 163 164 160 160 155 147 142 142 141 145 147 144 146 147 145 144 144 149 154 142 124 122 136 95 108 100 52
257 261 273 268 264 191 164 204 173 165 163 163 159 157 159 169 184 178 165 162 160 159 158 161 157 157 149 139 127 125 127 138 142 147 149 144 145 146 141 144 146 135 121 120 112 97 78 110 126
254 270 277 273 259 158 185 178 178 176 164 159 161 166 167 171 172 161 159 162 158 159 155 158 158 154 148 146 146 146 149 150 149 156 151 145 147 147 143 141 135 133 132 142 133 108 71 35 52
256 264 273 288 301 104 123 87 156 178 183 178 172 172 168 159 150 154 151 147 152 157 156 156 162 158 157 155 150 148 144 148 148 147 144 148 148 148 147 139 135 134 125 114 104 98 90 23 60
262 245 237 229 78 55 91 22 331 219 192 183 174 171 165 163 160 157 153 150 147 153 160 162 163 161 159 151 135 129 114 106 114 133 144 156 151 145 142 141 134 129 126 131 127 117 117 96 19
264 256 204 148 91 357 70 211 268 239 243 200 184 174 166 164 160 157 157 159 158 157 159 159 160 157 156 152 150 154 154 157 167 161 152 152 144 138 139 138 132 131 128 135 139 123 126 123 91
252 244 124 115 116 70 19 109 279 237 232 225 203 185 170 167 165 165 169 170 166 161 158 159 158 157 158 157 159 159 156 154 145 141 143 144 139 139 140 139 133 134 134 138 133 124 125 126 134
235 60 45 52 69 43 290 175 271 239 225 217 198 183 175 170 170 167 165 162 160 159 158 161 161 163 164 162 162 160 158 153 150 155 158 156 144 138 144 139 138 143 143 148 148 141 136 131 122
339 83 25 358 15 263 256 228 251 247 231 208 196 186 182 172 171 171 168 168 168 167 168 167 165 166 169 166 166 167 164 160 164 167 167 161 158 164 170 150 148 151 154 155 148 143 144 141 132
246 146 164 201 219 258 287 247 261 259 240 210 190 173 171 174 175 178 178 174 174 175 172 170 170 170 171 170 171 167 160 161 167 171 166 172 177 178 169 158 157 160 160 156 147 144 155 145 143
234 205 175 143 138 123 264 278 295 285 251 175 173 170 174 179 179 181 180 178 177 176 176 174 173 174 174 171 167 165 162 162 167 170 167 173 176 173 167 162 160 163 160 155 145 147 162 153 155
160 171 97 108 141 224 269 259 248 245 210 185 182 182 182 179 178 180 182 182 180 177 176 175 176 178 174 171 172 171 169 169 169 166 172 175 177 169 164 165 164 166 166 163 155 157 169 165 177
336 50 117 127 153 158 218 256 232 207 198 191 197 192 185 183 183 182 182 182 178 173 174 177 178 176 176 176 175 169 173 170 165 170 177 176 174 168 170 172 171 173 176 174 169 177 176 180 192
182 191 152 155 209 169 176 257 266 194 188 185 199 197 189 188 185 182 180 177 176 176 178 180 181 182 183 179 176 175 174 170 170 176 177 172 170 171 172 172 175 182 185 182 182 191 187 189 199